This is the latest recevied weather packets stored in our database for station/object OE9XVI-6. If no packets are shown the sender has not sent any weather packets the latest 1 day(s).
| Time | Temp. | Humidity | Pressure | Rain* | Wind** | Luminosity | Snow |
|---|---|---|---|---|---|---|---|
| 1778045812 | 9.44° C | 78% | 1007.3 hPa | 0 mm | - | - | - |
| 1778045212 | 9.44° C | 78% | 1007.4 hPa | 0 mm | - | - | - |
| 1778044612 | 8.89° C | 79% | 1007.4 hPa | 0 mm | - | - | - |
| 1778044012 | 8.33° C | 79% | 1007.4 hPa | 0 mm | - | - | - |
| 1778043412 | 8.33° C | 62% | 1007.6 hPa | 0 mm | - | - | - |
| 1778042812 | 8.33° C | 80% | 1007.7 hPa | 0 mm | - | - | - |
| 1778042212 | 8.33° C | 80% | 1007.7 hPa | 0 mm | - | - | - |
| 1778041612 | 8.33° C | 80% | 1007.8 hPa | 0 mm | - | - | - |
| 1778041012 | 8.33° C | 80% | 1007.9 hPa | 0 mm | - | - | - |
| 1778040412 | 8.33° C | 80% | 1008 hPa | 0 mm | - | - | - |
| 1778039812 | 8.33° C | 81% | 1008.3 hPa | 0 mm | - | - | - |
| 1778039212 | 8.33° C | 78% | 1008.4 hPa | 0 mm | - | - | - |
| 1778038612 | 8.33° C | 79% | 1008.6 hPa | 0 mm | - | - | - |
| 1778038012 | 8.33° C | 79% | 1008.6 hPa | 0 mm | - | - | - |
| 1778037412 | 8.33° C | 78% | 1008.7 hPa | 0 mm | - | - | - |
| 1778036812 | 8.33° C | 77% | 1008.7 hPa | 0 mm | - | - | - |
| 1778036212 | 8.33° C | 77% | 1008.7 hPa | 0 mm | - | - | - |
| 1778035612 | 8.33° C | 77% | 1009.1 hPa | 0 mm | - | - | - |
| 1778035012 | 8.33° C | 78% | 1009.2 hPa | 0 mm | - | - | - |
| 1778034412 | 8.33° C | 78% | 1009.4 hPa | 0 mm | - | - | - |
| 1778033812 | 8.33° C | 79% | 1009.4 hPa | 0 mm | - | - | - |
| 1778033212 | 8.33° C | 77% | 1009.4 hPa | 0 mm | - | - | - |
| 1778032612 | 8.33° C | 77% | 1009.5 hPa | 0 mm | - | - | - |
| 1778032012 | 8.33° C | 77% | 1009.5 hPa | 0 mm | - | - | - |
| 1778031412 | 8.33° C | 77% | 1009.5 hPa | 0 mm | - | - | - |
* Rain latest hour (hover to see other rain measurements)
** Current wind speed in m/s (hover to see current wind gust speed)